www.pogodaiklimat.ru

Погода и климат >> Архив погоды >> Россия >> Чукотка >> Бухта Амбарчик


ПОГОДА в Бухте Амбарчик

  • Прогноз погоды в Бухте Амбарчик
  • Монитор погоды в Бухте Амбарчик
  • Климат города

АРХИВ ПОГОДЫ в Бухте Амбарчик

Время (UTC), дата Ветер
(напр.,м/с)
 
Видим.   Явления Облачность Т
(С)
Тd
(С)
f
(%)
Тe
(С)
Тes
(С)
Комфортность P
(гПа)
Po
(гПа)
Тmin
(С)
Tmax
(С)
R
(мм)
R24
(мм)
S
(см)
06 17.08 С 6 4000 м дымка 10/10 300 м
[St]
+3.6 +2.2 91 -2 -2 1009.5 1006.6
09 17.08 С 5
{8}
20 км 10/9 300 м
[St Ac und]
+2.8 +0.8 87 -3 -3 1010.5 1007.6 +4.7
12 17.08 С 5
{7}
4000 м дымка 10/10 300 м
[St]
+3.3 +1.5 88 -2 -2 1011.2 1008.3
15 17.08 С 5
{9}
4000 м дымка 10/10 300 м
[St]
+4.2 +3.0 92 -1 -1 1011.7 1008.8
18 17.08 СЗ 7
{11}
4000 м слабая морось 10/10 200 м
[St]
+3.8 +2.3 90 -2 -2 1012.8 1009.9
21 17.08 С 6
{11}
20 км {морось} 10/10 300 м
[St]
+3.9 +1.1 82 -2 -2 1013.6 1010.7 +2.8 0.0
00 18.08 С 5
{8}
20 км {морось} 10/10 300 м
[St]
+4.1 +1.4 83 -1 -1 1014.2 1011.3
03 18.08 СЗ 5
{9}
20 км 10/10 300 м
[St]
+4.2 +1.4 82 -1 -1 1014.4 1011.5
06 18.08 С 1
{7}
20 км 10/10 300 м
[St]
+4.1 +1.1 81 +3 +3 1014.3 1011.4
09 18.08 ЮВ 2
{5}
20 км 9/9 300 м
[St]
+3.5 +1.2 85 +1 +1 1014.4 1011.5 +4.6
12 18.08 Ю 3
{3}
20 км 6/4 300 м
[St Ac trans]
+0.3 -0.9 92 -4 -4 1014.4 1011.5
15 18.08 ЮВ 3
{4}
20 км 4/1 300 м
[Sc Ac trans]
-0.3 -1.7 90 -5 -5 1014.0 1011.1
18 18.08 Ю 3
{5}
20 км 3/3 300 м
[Sc]
+2.7 -0.3 81 -1 -1 1014.2 1011.3
21 18.08 СВ 1
{4}
20 км 3/3 300 м
[Sc]
+6.8 +2.9 76 +6 +8 1014.3 1011.5 -0.6
00 19.08 СЗ 2
{3}
20 км 6/0
[Ci fib]
+8.9 +3.7 70 +7 +13 1014.4 1011.6
03 19.08 С 2
{4}
20 км 8/0
[Ci]
+9.7 +5.1 73 +8 +13 1013.4 1010.6
06 19.08 В 3
{4}
20 км 8/0
[Ac trans Ci]
+10.2 +5.0 70 +8 +9 1012.3 1009.5
09 19.08 Ю 4
{5}
20 км 9/9 300 м
[Sc]
+8.0 +3.6 74 +5 +5 1011.4 1008.6 +10.3
12 19.08 Ю 5
{5}
20 км 8/8 300 м
[Sc Ac trans]
+7.2 +3.6 78 +3 +3 1010.4 1007.6
15 19.08 Ю 4
{6}
20 км 8/8 300 м
[Sc]
+7.8 +3.6 75 +5 +5 1009.3 1006.5
18 19.08 Ю 5
{6}
20 км 9/0
[Ac trans]
+7.7 +3.0 72 +4 +4 1007.9 1005.1
21 19.08 ЮВ 6
{8}
20 км 10/5 600 м
[Sc Ac und]
+10.5 +4.8 68 +7 +8 1006.1 1003.3 +5.1
00 20.08 Ю 5
{9}
20 км 10/10 600 м
[Sc]
+13.9 +5.0 55 +12 +12 1004.4 1001.6
03 20.08 штиль 0
{7}
10 км ливневой дождь 10/10 300 м
[Cb cap]
+11.3 +8.1 81 +11 +11 1003.2 1000.4
06 20.08 В 3
{5}
4000 м дождь {ливн. осадки} 10/3 300 м
[Frnb As op]
+9.5 +8.7 95 +7 +7 1003.0 1000.2
09 20.08 ЮВ 2
{6}
4000 м слабый дождь 10/8 200 м
[Frnb As op]
+8.8 +8.1 95 +7 +7 1002.8 1000.0 +14.2 2
12 20.08 СВ 2
{4}
4000 м слабая морось {дождь} 10/10 200 м
[St]
+8.7 +8.1 96 +7 +7 1003.5 1000.7
15 20.08 С 5
{7}
10 км {морось} 10/10 300 м
[St]
+8.2 +7.5 95 +4 +4 1005.4 1002.6
18 20.08 В 3
{6}
20 км {морось} 10/10 300 м
[St]
+7.9 +6.8 93 +5 +5 1007.5 1004.7
21 20.08 СЗ 3
{6}
20 км 10/10 300 м
[St]
+8.1 +7.0 93 +5 +5 1009.8 1007.0 +7.7 0.3
00 21.08 СЗ 4
{6}
4000 м слабая морось 10/10 300 м
[St]
+8.9 +8.1 95 +6 +6 1010.9 1008.1
03 21.08 З 5
{8}
10 км слабая морось 10/10 300 м
[St]
+9.3 +7.7 90 +6 +6 1011.7 1008.9
06 21.08 СЗ 5
{10}
20 км {морось} 10/10 300 м
[St]
+8.2 +6.5 89 +4 +4 1013.1 1010.3
09 21.08 С 4
{7}
20 км 10/10 300 м
[St]
+8.0 +6.4 90 +5 +5 1014.0 1011.2 +9.5
12 21.08 С 3
{6}
20 км 10/10 300 м
[St]
+7.2 +5.0 86 +4 +4 1015.0 1012.2
15 21.08 СЗ 4
{7}
4000 м слабая морось 10/10 300 м
[St]
+6.7 +5.8 94 +3 +3 1015.7 1012.9
18 21.08 З 3
{8}
20 км в посл. час морось 9/9 200 м
[St]
+5.8 +4.7 93 +2 +2 1016.6 1013.8
21 21.08 ЮЗ 5
{7}
4000 м ливневой дождь 9/9 200 м
[Cb cap]
+6.6 +5.0 90 +2 +2 1017.0 1014.2 +5.5 1
00 22.08 З 4
{8}
10 км слабый ливневой дождь 10/10 200 м
[Cb cap]
+7.0 +4.8 86 +3 +3 1017.0 1014.2
03 22.08 З 3
{6}
20 км в посл. час ливневой дождь 10/10 200 м
[Cb cap]
+7.9 +4.5 79 +5 +5 1016.1 1013.3
06 22.08 СЗ 2
{6}
20 км {ливн. осадки} 8/5 300 м
[St Ci]
+9.6 +3.7 67 +8 +9 1015.3 1012.5
09 22.08 ЮВ 2
{5}
20 км 6/4 300 м
[St Ac trans Ci fib]
+5.5 +2.2 79 +3 +3 1014.7 1011.8 +9.6 0.3
12 22.08 Ю 4
{5}
20 км 8/3 600 м
[Sc Ac trans Ci fib]
+3.9 +2.6 91 -1 -1 1014.1 1011.2
15 22.08 Ю 5
{7}
20 км 9/6 600 м
[Sc Ac trans Ci fib]
+3.9 +2.7 92 -1 -1 1012.4 1009.5
18 22.08 Ю 6
{8}
20 км 9/6 300 м
[Sc Ac trans]
+4.7 +2.7 87 -1 -1 1011.1 1008.2
21 22.08 Ю 6
{8}
20 км 9/6 300 м
[Sc Ci fib]
+7.4 +4.0 79 +3 +3 1009.4 1006.6 +2.8
00 23.08 В 5
{8}
20 км 9/5 300 м
[Sc Ci fib]
+11.2 +7.7 79 +9 +10 1008.5 1005.7
03 23.08 В 5
{7}
20 км 9/3 600 м
[Sc Ci fib]
+12.8 +8.5 75 +11 +12 1006.9 1004.1
06 23.08 В 4
{7}
20 км 9/3 600 м
[Sc Ci fib]
+12.0 +8.5 79 +10 +11 1005.8 1003.0
09 23.08 ЮВ 2
{7}
20 км 9/5 600 м
[Sc Ac trans Ci fib]
+10.1 +7.5 84 +9 +9 1005.7 1002.9 +14.1
12 23.08 Ю 5
{7}
20 км 9/6 600 м
[Sc Ac trans]
+9.9 +7.3 84 +7 +7 1005.2 1002.4
15 23.08 В 2
{9}
20 км 9/6 600 м
[Sc Ci fib]
+9.0 +6.8 86 +7 +7 1004.7 1001.9
18 23.08 ЮВ 2
{5}
20 км 6/0
[Ac trans Ci fib]
+7.4 +5.7 89 +5 +5 1004.8 1002.0
21 23.08 В 2
{5}
20 км 8/0
[Ac trans Ci fib]
+11.6 +7.8 77 +11 +12 1004.4 1001.6 +5.9
00 24.08 В 3
{4}
20 км 9/3 600 м
[Sc Ac trans]
+11.7 +8.9 83 +10 +11 1004.4 1001.6
03 24.08 СВ 2
{5}
20 км 9/3 600 м
[Sc Ac trans]
+14.4 +10.2 76 +14 +16 1004.0 1001.2

 

Местоположение метеостанции Бухта Амбарчик (Чукотка, Россия): широта 69.62 долгота 162.30 высота над уровнем моря 23 м.

В архиве по умолчанию представлена погода в Бухте Амбарчик за последнюю неделю. Архивные данные за месяц целиком и за предыдущие месяцы, начиная с января 2011 года, Вы можете получить, выбрав интересующий диапазон дат из раскрывающегося списка и нажав кнопку "Ввод!".

Внимание! Время в таблицах - всемирное. Для получения местного времени необходимо прибавить поправку, которая в Бухте Амбарчик равна 12 ч.

Смотрите также архив погоды в соседних городах и на ближайших метеорологических станциях:

Погода в Черском (Якутия, Россия) (107 км)
Погода в Анюйске (Чукотка, Россия) (145 км)
Погода в Раучуе (Чукотка, Россия) (164 км)
Погода в Константиновской (Чукотка, Россия) (170 км)
Погода в Колымской (Якутия, Россия) (177 км)
Погода на Островном (Чукотка, Россия) (182 км)
Погода на Айон Острове (Чукотка, Россия) (218 км)
Погода в Билибино (Чукотка, Россия) (240 км)
Погода в Певеке (Чукотка, Россия) (305 км)
Погода в Андрюшкино (Якутия, Россия) (309 км)

Пояснения к столбцам:

Ветер - указаны скорость ветра в м/с - средняя за 10 мин, порывы в срок и между сроками (в фигурных скобках) и направление, откуда дует ветер: С - северный, СВ - северо-восточный, В - восточный, ЮВ - юго-восточный, Ю - южный, ЮЗ - юго-западный, З - западный, СЗ - северо-западный.
Видимость - горизонтальная дальность видимости в метрах или километрах. При видимости от 1 до 10 км при отсутствии осадков обычно наблюдается дымка, при ухудшении видимости до 1 км и менее - туман. В сухую погоду видимость может ухудшаться дымом, пылью или мглою.
Явления - указаны атмосферные явления, наблюдавшиеся в срок или в последний час перед сроком; фигурными скобками обозначены явления, наблюдавшиеся между сроками (за 1-3 часа до срока); квадратными скобками обозначены град или гололедные отложения с указанием их диаметра в мм.
Облачность - указаны через наклонную черту общая и нижняя облачность в баллах и высота нижней границы облаков в метрах; квадратными скобками обозначены формы облаков: Ci - перистые, Cs - перисто-слоистые, Cc - перисто-кучевые, Ac - высококучевые, As - высокослоистые, Sc - слоисто-кучевые, Ns - слоисто-дождевые, Cu - кучевые, Cb - кучево-дождевые. Подробнее классификацию облаков см. в Атласе облаков (PDF).
T - Температура воздуха - температура, измеренная на высоте 2 м над землей.
Td - Температура точки росы - температура, при понижении до которой содержащийся в воздухе водяной пар достигнет насыщения.
f - Относительная влажность воздуха - влажноcть воздуха, измеренная на высоте 2 м над землей.
Te - Эффективная температура - температура, которую ощущает одетый по сезону человек в тени. Характеристика душности погоды. При расчете учитывается влияние влажности воздуха и скорости ветра на теплоощущения человека.
Tes - Эффективная температура на солнце - температура, которую ощущает человек, с поправкой на солнечный нагрев. Характеристика знойности погоды. Зависит от высоты солнца над горизонтом, облачности и скорости ветра. Ночью, в пасмурную погоду, а также при ветре 12 м/с и более поправка равна нулю.
P - Атмосферное давление - приведенное к уровню моря атмосферное давление.
Po - Атмосферное давление - измеренное на уровне метеостанции атмосферное давление.
Tmin - Минимальная температура - минимум температуры воздуха на высоте 2 м над землей.
Tmax - Максимальная температура - максимум температуры воздуха на высоте 2 м над землей.
R - Количество осадков - Количество выпавших осадков за период времени, мм. При наведении курсора мыши на число - период времени, за который выпало указанное количество осадков.
R24 - Количество осадков - Количество выпавших осадков за 24 часа, мм.
S - Снежный покров - Высота снежного покрова, см. При наведении курсора мыши на число - состояние снежного покрова и степень покрытия местности в баллах.